SR8WXB-1 Weather Reports


Display with metric or nautical units.
time (UTC)temp
F
wind
direction
speed
MPH
gust
MPH
rain 1hr
in
rain 24hr
in
rain mn
in
humidity
%
barometer
mb
20260507105210 65 241 20.0 34.0 0.00 0.00 0.00 100 940.5
20260507104807 66 241 22.0 28.0 0.00 0.00 0.00 100 940.5
20260507104406 66 241 22.0 32.0 0.00 0.00 0.00 100 940.5
20260507104006 65 246 28.0 38.0 0.00 0.00 0.00 100 940.5
20260507103606 65 244 31.0 40.0 0.00 0.00 0.00 100 940.5
20260507103206 65 244 27.0 38.0 0.00 0.00 0.00 100 940.5
20260507102803 65 244 33.0 44.0 0.00 0.00 0.00 100 940.4
20260507102404 65 243 28.0 44.0 0.00 0.00 0.00 100 940.4
20260507102000 66 245 32.0 44.0 0.00 0.00 0.00 100 940.4
20260507101601 66 243 29.0 43.0 0.00 0.00 0.00 100 940.4
20260507101200 66 245 23.0 35.0 0.00 0.00 0.00 100 940.5
20260507100757 66 250 27.0 35.0 0.00 0.00 0.00 100 940.4
20260507100357 66 245 28.0 35.0 0.00 0.00 0.00 100 940.4
20260507095957 65 247 27.0 37.0 0.00 0.00 0.00 100 940.5
20260507095557 64 245 24.0 34.0 0.00 0.00 0.00 100 940.6
20260507095157 64 245 33.0 43.0 0.00 0.00 0.00 100 940.5
20260507094755 64 242 26.0 36.0 0.00 0.00 0.00 100 940.5
20260507094355 64 249 30.0 39.0 0.00 0.00 0.00 100 940.5
20260507093946 65 242 24.0 36.0 0.00 0.00 0.00 100 940.4
20260507093546 65 242 26.0 36.0 0.00 0.00 0.00 100 940.4
20260507093146 66 242 26.0 39.0 0.00 0.00 0.00 100 940.4
20260507092743 66 242 30.0 38.0 0.00 0.00 0.00 100 940.4
20260507092343 65 243 24.0 33.0 0.00 0.00 0.00 100 940.4
20260507091943 64 243 24.0 37.0 0.00 0.00 0.00 100 940.4
20260507091543 64 244 33.0 40.0 0.00 0.00 0.00 100 940.3
20260507091143 64 244 30.0 40.0 0.00 0.00 0.00 100 940.3
20260507090741 64 243 32.0 41.0 0.00 0.00 0.00 100 940.3
20260507090341 63 242 24.0 34.0 0.00 0.00 0.00 100 940.2
20260507085941 63 243 29.0 40.0 0.00 0.00 0.00 100 940.3
20260507085541 63 241 25.0 39.0 0.00 0.00 0.00 100 940.3
20260507085141 63 242 24.0 30.0 0.00 0.00 0.00 100 940.2
20260507084738 63 242 26.0 35.0 0.00 0.00 0.00 100 940.3
20260507084338 63 243 22.0 28.0 0.00 0.00 0.00 100 940.3
20260507083938 63 239 22.0 33.0 0.00 0.00 0.00 100 940.2
20260507083537 64 242 21.0 32.0 0.00 0.00 0.00 100 940.1
20260507083137 64 241 18.0 24.0 0.00 0.00 0.00 100 940.2
20260507082735 64 238 18.0 25.0 0.00 0.00 0.00 100 940.1
20260507082335 64 243 23.0 27.0 0.00 0.00 0.00 100 940.1
20260507081935 64 244 23.0 33.0 0.00 0.00 0.00 100 940.1
20260507081532 63 242 19.0 27.0 0.00 0.00 0.00 100 940.0
20260507081132 63 244 25.0 33.0 0.00 0.00 0.00 100 940.0
20260507080729 63 237 21.0 29.0 0.00 0.00 0.00 100 940.0
20260507080329 63 234 13.0 20.0 0.00 0.00 0.00 100 940.0
20260507075929 63 230 17.0 25.0 0.00 0.00 0.00 100 940.1
20260507075529 63 226 20.0 26.0 0.00 0.00 0.00 100 940.0
20260507075129 63 235 14.0 20.0 0.00 0.00 0.00 100 940.0
20260507074726 62 236 16.0 20.0 0.00 0.00 0.00 100 939.9
20260507074326 62 232 16.0 24.0 0.00 0.00 0.00 100 940.0
20260507073926 62 234 14.0 17.0 0.00 0.00 0.00 100 940.0
20260507073526 61 234 11.0 18.0 0.00 0.00 0.00 100 940.0
20260507073126 61 232 12.0 18.0 0.00 0.00 0.00 100 940.0
20260507072723 61 236 16.0 19.0 0.00 0.00 0.00 100 940.0
20260507072323 60 234 19.0 25.0 0.00 0.00 0.00 100 940.0
20260507071923 60 234 21.0 26.0 0.00 0.00 0.00 100 939.9
20260507071523 60 238 16.0 24.0 0.00 0.00 0.00 100 939.9
20260507071123 60 240 16.0 20.0 0.00 0.00 0.00 100 939.8
20260507070709 60 236 15.0 18.0 0.00 0.00 0.00 100 939.8
20260507070309 60 240 19.0 22.0 0.00 0.00 0.00 100 939.7
20260507065509 60 242 22.0 26.0 0.00 0.00 0.00 100 939.5
20260507065109 60 243 20.0 26.0 0.00 0.00 0.00 100 939.4
20260507064706 60 242 23.0 30.0 0.00 0.00 0.00 100 939.4
20260507064306 60 243 20.0 27.0 0.00 0.00 0.00 100 939.3
20260507063907 61 241 23.0 27.0 0.00 0.00 0.00 100 939.4
20260507063507 61 252 20.0 27.0 0.00 0.00 0.00 100 939.4
20260507063107 61 245 22.0 27.0 0.00 0.00 0.00 100 939.4
20260507062704 61 244 20.0 25.0 0.00 0.00 0.00 100 939.4
20260507062306 61 254 19.0 25.0 0.00 0.00 0.00 100 939.4
20260507061903 61 232 18.0 21.0 0.00 0.00 0.00 100 939.4
20260507061503 61 235 16.0 19.0 0.00 0.00 0.00 100 939.4
20260507061100 62 233 14.0 21.0 0.00 0.00 0.00 100 939.4
20260507060657 62 232 12.0 18.0 0.00 0.00 0.00 100 939.3
20260507060257 61 233 14.0 18.0 0.00 0.00 0.00 100 939.1
20260507055857 61 238 13.0 18.0 0.00 0.00 0.00 100 939.1
20260507055457 61 233 15.0 22.0 0.00 0.00 0.00 100 939.0
20260507055057 61 233 14.0 22.0 0.00 0.00 0.00 100 938.9
20260507054654 60 233 13.0 18.0 0.00 0.00 0.00 100 938.9
20260507054255 60 230 13.0 16.0 0.00 0.00 0.00 100 939.0
20260507053855 60 236 12.0 19.0 0.00 0.00 0.00 100 938.9
20260507053455 60 233 12.0 16.0 0.00 0.00 0.00 100 939.0
20260507053055 60 235 11.0 17.0 0.00 0.00 0.00 100 939.0
20260507052652 60 237 11.0 14.0 0.00 0.00 0.00 100 939.0
20260507052252 60 236 15.0 18.0 0.00 0.00 0.00 100 939.0
20260507051852 60 235 13.0 19.0 0.00 0.00 0.00 100 939.1
20260507051452 60 235 14.0 19.0 0.00 0.00 0.00 100 939.1
20260507051052 59 229 15.0 21.0 0.00 0.00 0.00 100 939.1
20260507050649 59 230 16.0 22.0 0.00 0.00 0.00 100 939.2
20260507050249 59 233 17.0 22.0 0.00 0.00 0.00 100 939.2
20260507045849 59 234 18.0 22.0 0.00 0.00 0.00 100 939.2
20260507045449 59 236 16.0 21.0 0.00 0.00 0.00 100 939.2
20260507045049 59 236 16.0 18.0 0.00 0.00 0.00 100 939.3
20260507044646 59 235 18.0 23.0 0.00 0.00 0.00 100 939.3
20260507044246 59 235 16.0 20.0 0.00 0.00 0.00 100 939.3
20260507043846 59 235 16.0 20.0 0.00 0.00 0.00 100 939.3
20260507043446 59 237 17.0 20.0 0.00 0.00 0.00 100 939.3
20260507043037 59 235 18.0 22.0 0.00 0.00 0.00 100 939.2
20260507042634 59 237 19.0 21.0 0.00 0.00 0.00 100 939.2
20260507042234 59 235 17.0 24.0 0.00 0.00 0.00 100 939.1
20260507041435 59 239 20.0 26.0 0.00 0.00 0.00 100 939.1
20260507041035 59 238 18.0 30.0 0.00 0.00 0.00 100 939.1
20260507040628 59 236 18.0 22.0 0.00 0.00 0.00 100 939.0
20260507040228 59 236 16.0 21.0 0.00 0.00 0.00 100 939.0
20260507035828 59 237 15.0 20.0 0.00 0.00 0.00 100 939.0
20260507035428 59 237 16.0 22.0 0.00 0.00 0.00 100 938.9
20260507035028 58 236 16.0 25.0 0.00 0.00 0.00 100 938.9
20260507034625 58 235 16.0 24.0 0.00 0.00 0.00 100 938.9
20260507034225 58 231 16.0 27.0 0.00 0.00 0.00 100 938.9
20260507033825 58 230 16.0 23.0 0.00 0.00 0.00 100 938.8
20260507033425 58 231 17.0 22.0 0.00 0.00 0.00 100 938.9
20260507033025 58 231 13.0 17.0 0.00 0.00 0.00 100 938.9
20260507032622 58 230 13.0 20.0 0.00 0.00 0.00 100 938.9
20260507032222 58 228 15.0 20.0 0.00 0.00 0.00 100 938.9
20260507031822 58 228 15.0 21.0 0.00 0.00 0.00 100 938.8
20260507031422 58 227 16.0 20.0 0.00 0.00 0.00 100 938.8
20260507031022 58 228 16.0 19.0 0.00 0.00 0.00 100 938.7
20260507030620 58 228 16.0 20.0 0.00 0.00 0.00 100 938.6
20260507030220 58 229 16.0 20.0 0.00 0.00 0.00 100 938.6
20260507025820 58 227 16.0 20.0 0.00 0.00 0.00 100 938.6
20260507025420 58 227 14.0 19.0 0.00 0.00 0.00 100 938.6
20260507025020 58 227 14.0 18.0 0.00 0.00 0.00 100 938.5
20260507024617 58 227 13.0 16.0 0.00 0.00 0.00 100 938.5
20260507024217 58 227 13.0 18.0 0.00 0.00 0.00 100 938.5
20260507023817 58 229 13.0 18.0 0.00 0.00 0.00 100 938.5
20260507023417 58 229 12.0 19.0 0.00 0.00 0.00 100 938.4
20260507023017 58 230 12.0 18.0 0.00 0.00 0.00 100 938.4
20260507022614 58 230 12.0 15.0 0.00 0.00 0.00 100 938.4
20260507022214 59 230 11.0 18.0 0.00 0.00 0.00 100 938.4
20260507021814 59 230 13.0 20.0 0.00 0.00 0.00 100 938.4
20260507021414 59 233 14.0 18.0 0.00 0.00 0.00 100 938.4
20260507021014 59 228 10.0 18.0 0.00 0.00 0.00 100 938.3
20260507020611 59 230 12.0 17.0 0.00 0.00 0.00 100 938.4
20260507020207 59 232 10.0 14.0 0.00 0.00 0.00 100 938.3
20260507015807 59 239 14.0 18.0 0.00 0.00 0.00 100 938.3
20260507015356 59 235 13.0 19.0 0.00 0.00 0.00 100 938.3
20260507014956 59 233 15.0 20.0 0.00 0.00 0.00 100 938.3
20260507014553 59 232 18.0 22.0 0.00 0.00 0.00 100 938.3
20260507014153 59 231 20.0 24.0 0.00 0.00 0.00 100 938.2
20260507013753 59 231 20.0 24.0 0.00 0.00 0.00 100 938.2
20260507013353 60 233 21.0 28.0 0.00 0.00 0.00 100 938.1
20260507012954 60 235 22.0 27.0 0.00 0.00 0.00 100 938.0
20260507012551 60 239 25.0 34.0 0.00 0.00 0.00 100 937.9
20260507012151 60 239 25.0 30.0 0.00 0.00 0.00 100 938.0
20260507011751 60 239 24.0 30.0 0.00 0.00 0.00 100 938.0
20260507011351 60 241 28.0 34.0 0.00 0.00 0.00 100 938.0
20260507010951 60 232 23.0 31.0 0.00 0.00 0.00 100 938.0
20260507010548 61 240 22.0 30.0 0.00 0.00 0.00 100 938.1
20260507010148 61 243 26.0 31.0 0.00 0.00 0.00 100 938.1
20260507005748 61 243 24.0 28.0 0.00 0.00 0.00 100 938.2
20260507005348 61 240 24.0 34.0 0.00 0.00 0.00 100 938.2
20260507004948 61 242 24.0 28.0 0.00 0.00 0.00 100 938.2
20260507004545 61 243 24.0 31.0 0.00 0.00 0.00 100 938.2
20260507004145 61 240 23.0 31.0 0.00 0.00 0.00 100 938.2
20260507003745 61 237 22.0 28.0 0.00 0.00 0.00 100 938.2
20260507002945 61 238 22.0 28.0 0.00 0.00 0.00 100 938.1
20260507002542 61 237 20.0 28.0 0.00 0.00 0.00 100 938.1
20260507002142 61 236 18.0 22.0 0.00 0.00 0.00 100 938.2
20260507001742 61 236 18.0 23.0 0.00 0.00 0.00 100 938.1
20260507001342 61 240 18.0 24.0 0.00 0.00 0.00 100 938.1
20260507000942 61 239 19.0 23.0 0.00 0.00 0.00 100 938.1
20260507000539 61 237 20.0 25.0 0.00 0.00 0.00 100 938.1
20260507000140 61 234 17.0 22.0 0.00 0.00 0.00 100 938.1
20260506235736 61 238 18.0 22.0 0.00 0.00 0.00 100 938.1
20260506235336 61 240 17.0 21.0 0.00 0.00 0.00 100 938.2
20260506234936 62 237 18.0 22.0 0.00 0.00 0.00 100 938.2
20260506234533 62 238 18.0 22.0 0.00 0.00 0.00 100 938.2
20260506234133 61 238 23.0 28.0 0.00 0.00 0.00 100 938.3
20260506233733 61 243 21.0 30.0 0.00 0.00 0.00 100 938.2
20260506233333 61 244 19.0 25.0 0.00 0.00 0.00 100 938.3
20260506232933 61 237 19.0 25.0 0.00 0.00 0.00 100 938.3
20260506232530 61 236 20.0 30.0 0.00 0.00 0.00 100 938.2
20260506232130 61 234 16.0 20.0 0.00 0.00 0.00 100 938.2
20260506231722 61 235 16.0 22.0 0.00 0.00 0.00 100 938.2
20260506231322 61 237 17.0 23.0 0.00 0.00 0.00 100 938.2
20260506230922 61 237 16.0 23.0 0.00 0.00 0.00 100 938.2
20260506230519 61 237 17.0 21.0 0.00 0.00 0.00 100 938.3
20260506230119 61 238 19.0 22.0 0.00 0.00 0.00 100 938.3
20260506225719 62 233 19.0 24.0 0.00 0.00 0.00 100 938.3
20260506225318 62 236 19.0 23.0 0.00 0.00 0.00 100 938.3
20260506224918 62 243 21.0 26.0 0.00 0.00 0.00 100 938.3
20260506224515 62 243 22.0 27.0 0.00 0.00 0.00 100 938.3
20260506224115 62 244 26.0 32.0 0.00 0.00 0.00 100 938.3
20260506223715 62 243 28.0 33.0 0.00 0.00 0.00 100 938.3
20260506223315 62 243 28.0 36.0 0.00 0.00 0.00 100 938.2
20260506222915 61 245 29.0 36.0 0.00 0.00 0.00 100 938.3
20260506222512 61 243 24.0 35.0 0.00 0.00 0.00 100 938.1
20260506222112 62 245 27.0 35.0 0.00 0.00 0.00 100 938.1
20260506221712 62 244 28.0 36.0 0.00 0.00 0.00 100 938.1
20260506221312 62 248 28.0 36.0 0.00 0.00 0.00 100 938.1
20260506220912 62 247 32.0 41.0 0.00 0.00 0.00 100 938.1
20260506220509 61 243 28.0 32.0 0.00 0.00 0.00 100 938.1
20260506220109 61 244 28.0 31.0 0.00 0.00 0.00 100 938.1
20260506215709 61 243 28.0 31.0 0.00 0.00 0.00 100 938.1
20260506215306 61 243 27.0 34.0 0.00 0.00 0.00 100 938.1
20260506214906 61 243 27.0 34.0 0.00 0.00 0.00 100 938.1
20260506214503 61 244 26.0 31.0 0.00 0.00 0.00 100 938.0
20260506214103 61 245 28.0 37.0 0.00 0.00 0.00 100 938.1
20260506213703 61 247 26.0 35.0 0.00 0.00 0.00 100 938.1
20260506213303 61 247 28.0 41.0 0.00 0.00 0.00 100 938.0
20260506212903 61 245 29.0 38.0 0.00 0.00 0.00 100 938.0
20260506212500 61 245 23.0 31.0 0.00 0.00 0.00 100 938.1
20260506212100 61 244 20.0 30.0 0.00 0.00 0.00 100 938.1
20260506211700 61 244 21.0 29.0 0.00 0.00 0.00 100 938.1
20260506211301 61 245 27.0 37.0 0.00 0.00 0.00 100 938.1
20260506210901 61 243 24.0 29.0 0.00 0.00 0.00 100 938.1
20260506210458 61 240 20.0 25.0 0.00 0.00 0.00 100 938.1
20260506210058 61 236 18.0 23.0 0.00 0.00 0.00 100 938.1
20260506205658 61 240 20.0 31.0 0.00 0.00 0.00 100 938.1
20260506205258 61 236 14.0 19.0 0.00 0.00 0.00 100 938.1
20260506204858 61 238 18.0 25.0 0.00 0.00 0.00 100 938.0
20260506204444 61 238 22.0 29.0 0.00 0.00 0.00 100 938.0
20260506204044 61 241 23.0 34.0 0.00 0.00 0.00 100 938.0
20260506203244 61 239 16.0 22.0 0.00 0.00 0.00 100 938.0
20260506202844 61 242 25.0 35.0 0.00 0.00 0.00 100 938.0
20260506202441 61 245 21.0 26.0 0.00 0.00 0.00 100 938.0
20260506202041 61 241 16.0 21.0 0.00 0.00 0.00 100 938.0
20260506201641 61 243 22.0 29.0 0.00 0.00 0.00 100 938.0
20260506201241 61 238 18.0 22.0 0.00 0.00 0.00 100 938.0
20260506200841 61 236 16.0 22.0 0.00 0.00 0.00 100 938.0
20260506200438 61 238 18.0 23.0 0.00 0.00 0.00 100 938.0
20260506200038 61 238 18.0 21.0 0.00 0.00 0.00 100 938.0
20260506195638 61 238 17.0 21.0 0.00 0.00 0.00 100 938.0
20260506195238 61 240 17.0 26.0 0.00 0.00 0.00 100 938.1
20260506194835 61 235 15.0 25.0 0.00 0.00 0.00 100 938.1
20260506194432 61 236 14.0 20.0 0.00 0.00 0.00 100 938.1
20260506194032 61 240 19.0 26.0 0.00 0.00 0.00 100 938.1
20260506193632 61 238 18.0 27.0 0.00 0.00 0.00 100 938.1
20260506193232 61 237 16.0 22.0 0.00 0.00 0.00 100 938.1
20260506192832 61 238 18.0 22.0 0.00 0.00 0.00 100 938.1
20260506192429 61 238 12.0 16.0 0.00 0.00 0.00 100 938.1
20260506192029 62 238 14.0 21.0 0.00 0.00 0.00 100 938.1
20260506191629 62 237 17.0 27.0 0.00 0.00 0.00 100 938.1
20260506191229 61 239 13.0 18.0 0.00 0.00 0.00 100 938.2
20260506190829 61 238 10.0 16.0 0.00 0.00 0.00 100 938.1
20260506190426 61 238 12.0 18.0 0.00 0.00 0.00 100 938.1
20260506190026 61 240 12.0 16.0 0.00 0.00 0.00 100 938.1
20260506185626 61 238 11.0 17.0 0.00 0.00 0.00 100 938.1
20260506185227 61 238 12.0 19.0 0.00 0.00 0.00 100 938.1
20260506184827 61 238 11.0 17.0 0.00 0.00 0.00 100 938.1
20260506184424 62 239 13.0 20.0 0.00 0.00 0.00 100 938.1
20260506184024 62 238 16.0 22.0 0.00 0.00 0.00 100 938.0
20260506183624 62 238 14.0 21.0 0.00 0.00 0.00 100 938.0
20260506183224 62 238 14.0 18.0 0.00 0.00 0.00 100 938.0
20260506182823 62 238 15.0 19.0 0.00 0.00 0.00 100 938.0
20260506182420 62 237 18.0 25.0 0.00 0.00 0.00 100 938.0
20260506182020 62 237 20.0 25.0 0.00 0.00 0.00 100 938.0
20260506181620 62 238 17.0 22.0 0.00 0.00 0.00 100 937.9
20260506181220 63 239 18.0 23.0 0.00 0.00 0.00 100 937.9
20260506180812 63 243 22.0 28.0 0.00 0.00 0.00 100 937.9
20260506180409 62 238 18.0 25.0 0.00 0.00 0.00 100 937.9
20260506180009 62 237 20.0 31.0 0.00 0.00 0.00 100 937.8
20260506175209 63 241 21.0 27.0 0.00 0.00 0.00 100 937.8
20260506174809 63 238 22.0 29.0 0.00 0.00 0.00 100 937.8
20260506174402 63 241 20.0 27.0 0.00 0.00 0.00 100 937.8
20260506174002 63 239 20.0 34.0 0.00 0.00 0.00 100 937.8
20260506173602 63 242 22.0 30.0 0.00 0.00 0.00 100 937.9
20260506173202 63 243 23.0 31.0 0.00 0.00 0.00 100 937.9
20260506172802 64 244 21.0 28.0 0.00 0.00 0.00 100 937.9
20260506172400 64 243 20.0 24.0 0.00 0.00 0.00 100 938.0
20260506172000 64 244 25.0 33.0 0.00 0.00 0.00 100 938.0
20260506171600 64 245 22.0 27.0 0.00 0.00 0.00 100 937.9
20260506171200 64 246 24.0 31.0 0.00 0.00 0.00 100 938.0
20260506170800 65 247 27.0 33.0 0.00 0.00 0.00 100 938.0
20260506170357 65 251 24.0 38.0 0.00 0.00 0.00 100 938.0
20260506165957 65 245 26.0 37.0 0.00 0.00 0.00 100 938.0
20260506165557 65 244 28.0 35.0 0.00 0.00 0.00 100 938.0
20260506165157 65 246 31.0 41.0 0.00 0.00 0.00 100 937.9
20260506164757 66 245 27.0 38.0 0.00 0.00 0.00 100 937.9
20260506164354 66 247 24.0 33.0 0.00 0.00 0.00 100 937.8
20260506163954 66 245 27.0 39.0 0.00 0.00 0.00 100 937.7
20260506163554 67 247 28.0 39.0 0.00 0.00 0.00 100 937.8
20260506163155 67 246 30.0 35.0 0.00 0.00 0.00 100 937.8
20260506162754 67 248 28.0 39.0 0.00 0.00 0.00 100 937.8
20260506162351 67 250 25.0 37.0 0.00 0.00 0.00 100 937.7
20260506161951 67 247 23.0 29.0 0.00 0.00 0.00 100 937.7
20260506161551 67 249 24.0 32.0 0.00 0.00 0.00 100 937.7
20260506161151 67 244 28.0 36.0 0.00 0.00 0.00 100 937.8
20260506160752 67 245 30.0 40.0 0.00 0.00 0.00 100 937.8
20260506160349 67 247 27.0 34.0 0.00 0.00 0.00 100 937.8
20260506155949 67 247 24.0 30.0 0.00 0.00 0.00 100 937.8
20260506155549 67 248 24.0 30.0 0.00 0.00 0.00 100 937.8
20260506155149 67 246 26.0 33.0 0.00 0.00 0.00 100 937.9
20260506154748 67 249 24.0 30.0 0.00 0.00 0.00 100 937.9
20260506154345 67 250 30.0 38.0 0.00 0.00 0.00 100 937.9
20260506153942 67 248 28.0 39.0 0.00 0.00 0.00 100 937.9
20260506153542 67 248 25.0 32.0 0.00 0.00 0.00 100 937.9
20260506153131 68 249 30.0 40.0 0.00 0.00 0.00 100 937.9
20260506152731 68 250 30.0 44.0 0.00 0.00 0.00 100 937.8
20260506152328 68 248 29.0 41.0 0.00 0.00 0.00 100 937.9
20260506151928 68 247 32.0 39.0 0.00 0.00 0.00 100 937.9
20260506151528 68 248 30.0 41.0 0.00 0.00 0.00 100 937.9
20260506151128 68 246 30.0 38.0 0.00 0.00 0.00 100 938.0
20260506150728 68 245 26.0 36.0 0.00 0.00 0.00 100 938.0
20260506150325 69 246 28.0 45.0 0.00 0.00 0.00 100 938.0
20260506145925 69 247 33.0 45.0 0.00 0.00 0.00 100 938.1
20260506145525 69 248 30.0 41.0 0.00 0.00 0.00 100 938.2
20260506145125 68 248 34.0 44.0 0.00 0.00 0.00 100 938.1
20260506144725 68 246 29.0 44.0 0.00 0.00 0.00 100 938.2
20260506144322 67 248 32.0 44.0 0.00 0.00 0.00 100 938.1
20260506143922 68 247 28.0 40.0 0.00 0.00 0.00 100 938.3
20260506143523 68 248 34.0 46.0 0.00 0.00 0.00 100 938.3
20260506143122 69 249 33.0 40.0 0.00 0.00 0.00 100 938.2
20260506142723 69 250 38.0 48.0 0.00 0.00 0.00 100 938.2
20260506142320 70 248 35.0 45.0 0.00 0.00 0.00 100 938.2
20260506141920 70 248 38.0 52.0 0.00 0.00 0.00 100 938.2
20260506141520 70 249 39.0 50.0 0.00 0.00 0.00 100 938.2
20260506140720 70 251 30.0 40.0 0.00 0.00 0.00 100 938.2
20260506140317 70 255 30.0 37.0 0.00 0.00 0.00 100 938.2
20260506135916 71 249 32.0 40.0 0.00 0.00 0.00 100 938.2
20260506135516 71 253 32.0 40.0 0.00 0.00 0.00 100 938.2
20260506135116 71 245 26.0 34.0 0.00 0.00 0.00 100 938.2
20260506134716 71 246 26.0 36.0 0.00 0.00 0.00 100 938.2
20260506134314 71 246 26.0 32.0 0.00 0.00 0.00 100 938.3
20260506133914 71 249 26.0 34.0 0.00 0.00 0.00 100 938.3
20260506133510 71 250 30.0 36.0 0.00 0.00 0.00 100 938.3
20260506133110 71 250 23.0 30.0 0.00 0.00 0.00 100 938.3
20260506132710 70 248 26.0 36.0 0.00 0.00 0.00 100 938.3
20260506132308 70 245 26.0 33.0 0.00 0.00 0.00 100 938.4
20260506131908 70 245 26.0 39.0 0.00 0.00 0.00 100 938.3
20260506131508 70 244 22.0 32.0 0.00 0.00 0.00 100 938.4
20260506131108 70 248 28.0 40.0 0.00 0.00 0.00 100 938.4
20260506130708 70 247 29.0 36.0 0.00 0.00 0.00 100 938.4
20260506130305 70 251 27.0 34.0 0.00 0.00 0.00 100 938.4
20260506125905 70 249 29.0 46.0 0.00 0.00 0.00 100 938.5
20260506125456 70 244 33.0 46.0 0.00 0.00 0.00 100 938.5
20260506125056 70 248 30.0 40.0 0.00 0.00 0.00 100 938.5
20260506124656 69 246 27.0 38.0 0.00 0.00 0.00 100 938.5
20260506124254 69 245 27.0 39.0 0.00 0.00 0.00 100 938.5
20260506123854 69 245 29.0 48.0 0.00 0.00 0.00 100 938.5
20260506123454 69 243 28.0 40.0 0.00 0.00 0.00 100 938.5
20260506123054 69 247 31.0 40.0 0.00 0.00 0.00 100 938.5
20260506122654 68 246 36.0 46.0 0.00 0.00 0.00 100 938.4
20260506122251 69 248 40.0 52.0 0.00 0.00 0.00 100 938.5
20260506121851 69 244 38.0 50.0 0.00 0.00 0.00 100 938.5
20260506121451 69 241 27.0 40.0 0.00 0.00 0.00 100 938.6
20260506121051 69 246 33.0 41.0 0.00 0.00 0.00 100 938.6
20260506120651 69 249 34.0 41.0 0.00 0.00 0.00 100 938.5
20260506120248 69 249 37.0 44.0 0.00 0.00 0.00 100 938.5
20260506115848 69 248 36.0 43.0 0.00 0.00 0.00 100 938.6
20260506115448 69 248 34.0 45.0 0.00 0.00 0.00 100 938.6
20260506114648 68 251 36.0 46.0 0.00 0.00 0.00 100 938.7
20260506114245 69 250 30.0 38.0 0.00 0.00 0.00 100 938.7
20260506113845 69 251 32.0 39.0 0.00 0.00 0.00 100 938.6
20260506113445 69 245 34.0 41.0 0.00 0.00 0.00 100 938.6
20260506113042 70 248 33.0 40.0 0.00 0.00 0.00 100 938.6
20260506112642 70 244 29.0 43.0 0.00 0.00 0.00 100 938.8
20260506112239 69 243 22.0 31.0 0.00 0.00 0.00 100 938.8
20260506111839 68 245 24.0 35.0 0.00 0.00 0.00 100 938.8
20260506111439 68 247 32.0 44.0 0.00 0.00 0.00 100 938.8
20260506111039 68 249 28.0 38.0 0.00 0.00 0.00 100 938.8
20260506110639 67 245 30.0 40.0 0.00 0.00 0.00 100 938.8
20260506110236 66 245 29.0 40.0 0.00 0.00 0.00 100 938.8
20260506105836 66 243 35.0 44.0 0.00 0.00 0.00 100 938.7
20260506105436 66 245 36.0 46.0 0.00 0.00 0.00 100 938.6